Weather History for South St. Paul, MN

Change the Weather History Date:

Thursday, February 28, 2013

  Actual Average (KMSP) Record (KMSP)
Temperature  
Mean Temperature 28 °F 26 °F  
Max Temperature 31 °F 34 °F 57 °F (1932)
Min Temperature 25 °F 18 °F -26 °F (1962)
Degree Days  
Heating Degree Days 37 39  
Month to date heating degree days 1237  
Since 1 July heating degree days 5790  
Cooling Degree Days 0 0  
Month to date cooling degree days 0  
Year to date cooling degree days 0  
Moisture  
Dew Point 20 °F    
Average Humidity 67    
Maximum Humidity 76    
Minimum Humidity 63    
Precipitation  
Precipitation 0.00 in 0.04 in 0.70 in (2012)
Month to date precipitation 0.77  
Year to date precipitation 1.67  
Snow  
Snow 0.00 in 0.30 in 8.00 in (1907)
Month to date snowfall 7.7  
Since 1 July snowfall 41.7  
Snow Depth -    
Sea Level Pressure  
Sea Level Pressure 30.13 in    
Wind  
Wind Speed 9 mph (NNE)    
Max Wind Speed 15 mph    
Max Gust Speed 20 mph    
Visibility 10 miles    
Events      
T = Trace of Precipitation, MM = Missing Value Source: NWS Daily Summary

Daily Weather History Graph

Daily Weather History Graph

Search for Another Location

Airport:

Trip Planner

Search our weather history database for the weather conditions in past years. The results will help you decide how hot, cold, wet, or windy it might be!

Date:

Astronomy

Feb. 28, 2013 Rise Set
Actual Time 6:51 AM CST 5:58 PM CST
Civil Twilight 6:21 AM CST 6:28 PM CST
Nautical Twilight 5:47 AM CST 7:02 PM CST
Astronomical Twilight 5:13 AM CST 7:36 PM CST
Moon 9:38 PM CST (2/28) 7:51 AM CST (2/28)
Length of Visible Light 12h 06m
Length of Day
11h 07m
Waning Gibbous, 90% of the Moon is Illuminated
Feb 28
Waning Gibbous
Mar 4
Last Quarter
Mar 11
New
Mar 19
First Quarter
Mar 27
Full

Hourly Weather History & Observations

Time (CST) Temp. Windchill Dew Point Humidity Pressure Visibility Wind Dir Wind Speed Gust Speed Precip Events Conditions
12:12 AM 29.3 °F 22.3 °F 22.5 °F 76% 30.02 in 10.0 mi North 6.9 mph - N/A   Mostly Cloudy
12:32 AM 29.7 °F 22.0 °F 22.3 °F 74% 30.02 in 10.0 mi North 8.1 mph - N/A   Overcast
12:52 AM 30.0 °F 22.4 °F 22.5 °F 73% 30.02 in 10.0 mi North 8.1 mph - N/A   Overcast
1:12 AM 30.2 °F 24.3 °F 22.5 °F 73% 30.03 in 10.0 mi North 5.8 mph - N/A   Overcast
1:32 AM 30.9 °F 25.2 °F 22.6 °F 71% 30.04 in 10.0 mi North 5.8 mph - N/A   Overcast
1:52 AM 31.1 °F 23.7 °F 22.6 °F 71% 30.04 in 10.0 mi North 8.1 mph - N/A   Overcast
2:12 AM 31.1 °F 24.5 °F 22.5 °F 70% 30.04 in 10.0 mi North 6.9 mph - N/A   Overcast
2:32 AM 31.1 °F 24.5 °F 22.6 °F 71% 30.04 in 10.0 mi North 6.9 mph - N/A   Overcast
2:52 AM 31.1 °F 23.7 °F 22.1 °F 69% 30.04 in 10.0 mi North 8.1 mph - N/A   Overcast
3:12 AM 31.1 °F 25.4 °F 22.5 °F 70% 30.04 in 10.0 mi NNW 5.8 mph - N/A   Overcast
3:52 AM 31.8 °F 23.9 °F 22.3 °F 68% 30.04 in 10.0 mi North 9.2 mph - N/A   Overcast
4:32 AM 31.8 °F 22.3 °F 22.1 °F 67% 30.06 in 10.0 mi North 12.7 mph 17.3 mph N/A   Overcast
4:52 AM 31.8 °F 23.9 °F 21.9 °F 67% 30.07 in 10.0 mi North 9.2 mph - N/A   Overcast
5:12 AM 31.8 °F 23.3 °F 21.6 °F 66% 30.07 in 10.0 mi North 10.4 mph 18.4 mph N/A   Overcast
5:32 AM 31.6 °F 22.6 °F 21.2 °F 65% 30.07 in 10.0 mi NNE 11.5 mph 19.6 mph N/A   Overcast
5:52 AM 31.5 °F 24.2 °F 21.4 °F 66% 30.08 in 10.0 mi North 8.1 mph - N/A   Overcast
6:12 AM 31.1 °F 21.9 °F 21.7 °F 68% 30.09 in 10.0 mi North 11.5 mph 16.1 mph N/A   Overcast
6:32 AM 31.1 °F 23.1 °F 20.8 °F 66% 30.09 in 10.0 mi NNE 9.2 mph 18.4 mph N/A   Overcast
6:52 AM 30.9 °F 22.8 °F 20.7 °F 66% 30.10 in 10.0 mi NNE 9.2 mph - N/A   Overcast
7:12 AM 30.9 °F 22.2 °F 21.2 °F 67% 30.10 in 10.0 mi North 10.4 mph - N/A   Overcast
7:32 AM 30.7 °F 20.0 °F 20.7 °F 66% 30.10 in 10.0 mi North 15.0 mph 19.6 mph N/A   Overcast
7:52 AM 30.6 °F 21.2 °F 20.5 °F 66% 30.11 in 10.0 mi North 11.5 mph 18.4 mph N/A   Overcast
8:12 AM 30.2 °F 21.3 °F 20.3 °F 67% 30.11 in 10.0 mi NNE 10.4 mph 17.3 mph N/A   Overcast
8:32 AM 29.8 °F 19.3 °F 20.3 °F 68% 30.12 in 10.0 mi North 13.8 mph 18.4 mph N/A   Overcast
8:52 AM 29.7 °F 20.7 °F 20.7 °F 69% 30.12 in 10.0 mi NNE 10.4 mph - N/A   Overcast
9:12 AM 29.7 °F 24.7 °F 20.3 °F 68% 30.13 in 10.0 mi NNE 4.6 mph - N/A   Overcast
9:32 AM 29.7 °F 21.3 °F 20.3 °F 68% 30.13 in 10.0 mi North 9.2 mph - N/A   Overcast
9:52 AM 29.7 °F 20.1 °F 20.1 °F 68% 30.14 in 10.0 mi NNE 11.5 mph 19.6 mph N/A   Overcast
10:12 AM 29.7 °F 20.1 °F 19.9 °F 67% 30.14 in 10.0 mi NNE 11.5 mph - N/A   Overcast
10:32 AM 29.7 °F 22.0 °F 20.1 °F 68% 30.15 in 10.0 mi NNE 8.1 mph - N/A   Overcast
10:52 AM 29.7 °F 22.0 °F 20.3 °F 68% 30.15 in 10.0 mi North 8.1 mph - N/A   Overcast
11:12 AM 29.8 °F 20.3 °F 20.3 °F 68% 30.15 in 10.0 mi North 11.5 mph - N/A   Overcast
11:32 AM 30.0 °F 21.7 °F 20.5 °F 68% 30.15 in 10.0 mi North 9.2 mph - N/A   Overcast
11:52 AM 30.2 °F 24.3 °F 20.5 °F 67% 30.15 in 10.0 mi NNE 5.8 mph - N/A   Overcast
12:12 PM 30.4 °F 22.9 °F 20.8 °F 68% 30.15 in 10.0 mi North 8.1 mph - N/A   Overcast
12:32 PM 30.4 °F 22.9 °F 21.2 °F 69% 30.15 in 10.0 mi NNE 8.1 mph - N/A   Overcast
12:52 PM 30.2 °F 21.9 °F 21.2 °F 69% 30.15 in 10.0 mi North 9.2 mph - N/A   Overcast
1:12 PM 30.7 °F 23.3 °F 21.2 °F 68% 30.14 in 10.0 mi NNE 8.1 mph - N/A   Overcast
1:32 PM 30.6 °F 21.8 °F 21.7 °F 70% 30.14 in 10.0 mi North 10.4 mph - N/A   Overcast
1:52 PM 30.2 °F 21.3 °F 21.7 °F 71% 30.14 in 10.0 mi North 10.4 mph - N/A   Overcast
2:12 PM 30.2 °F 21.3 °F 21.9 °F 71% 30.14 in 10.0 mi North 10.4 mph - N/A   Overcast
2:32 PM 30.2 °F 21.3 °F 21.7 °F 71% 30.14 in 10.0 mi North 10.4 mph - N/A   Overcast
2:52 PM 30.6 °F 20.7 °F 21.7 °F 70% 30.14 in 10.0 mi North 12.7 mph 16.1 mph N/A   Overcast
3:32 PM 30.7 °F 22.0 °F 19.8 °F 64% 30.15 in 10.0 mi NNE 10.4 mph - N/A   Overcast
3:52 PM 30.7 °F 23.3 °F 19.4 °F 63% 30.16 in 10.0 mi North 8.1 mph - N/A   Overcast
4:12 PM 30.6 °F 21.2 °F 19.2 °F 63% 30.16 in 10.0 mi North 11.5 mph - N/A   Overcast
4:32 PM 30.2 °F 23.4 °F 19.4 °F 64% 30.16 in 10.0 mi North 6.9 mph - N/A   Overcast
4:52 PM 30.0 °F 21.7 °F 19.0 °F 64% 30.16 in 10.0 mi North 9.2 mph - N/A   Overcast
5:12 PM 29.8 °F 21.5 °F 18.5 °F 63% 30.17 in 10.0 mi North 9.2 mph - N/A   Overcast
5:32 PM 29.7 °F 21.3 °F 18.5 °F 63% 30.17 in 10.0 mi North 9.2 mph - N/A   Overcast
5:52 PM 29.7 °F 20.7 °F 18.3 °F 63% 30.17 in 10.0 mi North 10.4 mph - N/A   Overcast
6:12 PM 29.7 °F 22.0 °F 18.3 °F 63% 30.18 in 10.0 mi North 8.1 mph - N/A   Overcast
6:32 PM 29.7 °F 23.7 °F 18.7 °F 64% 30.18 in 10.0 mi North 5.8 mph - N/A   Overcast
6:52 PM 29.7 °F 22.8 °F 18.7 °F 64% 30.18 in 10.0 mi North 6.9 mph - N/A   Overcast
7:12 PM 29.7 °F 22.8 °F 19.2 °F 65% 30.18 in 10.0 mi North 6.9 mph - N/A   Overcast
7:32 PM 29.7 °F 23.7 °F 19.4 °F 66% 30.19 in 10.0 mi North 5.8 mph - N/A   Overcast
7:52 PM 29.7 °F 23.7 °F 19.4 °F 66% 30.19 in 10.0 mi North 5.8 mph - N/A   Overcast
8:12 PM 29.7 °F 22.0 °F 19.6 °F 66% 30.19 in 10.0 mi NNE 8.1 mph - N/A   Overcast
8:32 PM 28.4 °F 20.4 °F 18.0 °F 65% 30.20 in 10.0 mi ENE 8.1 mph - N/A   Overcast
8:52 PM 27.7 °F 20.4 °F 17.6 °F 66% 30.20 in 10.0 mi ENE 6.9 mph - N/A   Overcast
9:12 PM 27.3 °F 19.9 °F 17.1 °F 65% 30.20 in 10.0 mi ENE 6.9 mph - N/A   Overcast
9:32 PM 27.0 °F 18.7 °F 16.7 °F 65% 30.20 in 10.0 mi ENE 8.1 mph - N/A   Overcast
10:12 PM 26.6 °F 21.2 °F 16.7 °F 66% 30.21 in 10.0 mi NE 4.6 mph - N/A   Overcast
10:32 PM 26.6 °F 20.0 °F 16.7 °F 66% 30.21 in 10.0 mi ENE 5.8 mph - N/A   Overcast
10:52 PM 26.2 °F 16.4 °F 16.5 °F 67% 30.22 in 10.0 mi NE 10.4 mph - N/A   Overcast
11:12 PM 26.1 °F 17.6 °F 16.2 °F 66% 30.22 in 10.0 mi ENE 8.1 mph - N/A   Overcast
11:32 PM 25.7 °F 17.1 °F 15.8 °F 66% 30.22 in 10.0 mi NE 8.1 mph - N/A   Overcast
11:52 PM 25.7 °F 16.4 °F 15.8 °F 66% 30.22 in 10.0 mi NE 9.2 mph - N/A   Overcast